Location: Pulvis Stellarum Observatory
(41.6962°N, 71.4263°W)
Time: 18:23:31
(UTC-04:00)

Cosmos 1758 - Visible Passes

Search period start: 29 March 2015 00:00
Search period end: 08 April 2015 00:00
Orbit: 547 x 570 km, 82.5° (Epoch: 29 March)

Date Brightness Start Highest point End Pass type
(mag) Time Alt. Az. Time Alt. Az. Time Alt. Az.
29 Mar 6.9 20:39:23 10° W 20:41:26 13° WNW 20:43:20 10° NW visible
30 Mar 7.3 05:03:47 10° ENE 05:04:14 10° ENE 05:04:55 10° ENE visible
30 Mar 7.1 20:38:30 10° W 20:39:55 11° WNW 20:41:08 10° NW visible
31 Mar 7.1 05:01:10 10° NE 05:02:43 12° ENE 05:04:28 10° E visible
01 Apr 6.9 04:59:04 10° NE 05:01:12 14° ENE 05:03:30 10° ESE visible
02 Apr 6.7 04:57:05 10° NNE 04:59:39 16° ENE 05:02:21 10° ESE visible
03 Apr 6.4 04:55:11 10° NNE 04:58:06 19° ENE 05:01:07 10° ESE visible
04 Apr 6.2 04:53:20 10° NNE 04:56:32 22° ENE 04:59:48 10° SE visible
05 Apr 5.9 04:51:31 10° NNE 04:54:57 25° ENE 04:58:25 10° SE visible
06 Apr 5.5 04:49:43 10° NNE 04:53:21 29° ENE 04:56:59 10° SE visible
07 Apr 5.2 04:47:57 10° N 04:51:43 34° ENE 04:55:31 10° SE visible
